Hourly Data Report for October 04, 2017

All times are specified in Local Standard Time (LST). Add 1 hour to adjust for Daylight Saving Time where and when it is observed.

CHURCHILL
MANITOBA

58°44'21.000" N
94°03'59.000" W
29.30 m
5060595
71618
YYQ

Related Data

No related data is available for this station

Download Data

Hourly Data (October 2017)
Hourly Data Report for October 4, 2017
Temp Definition
°C
Dew Point Temp Definition
°C
Rel Hum Definition
%
Wind Dir Definition
10's deg

Wind Spd Definition
km/h
Visibility Definition
km
Stn Press Definition
kPa
Hmdx Definition


Wind Chill Definition


Weather Definition


TIME
00:00 Legend Double Dagger 3.7 1.7 87 18 18 16.1 100.64     LegendNANA
01:00 Legend Double Dagger 3.9 2.1 88 18 17 16.1 100.46     LegendNANA
02:00 Legend Double Dagger 4.3 1.8 84 19 18 16.1 100.29     LegendNANA
03:00 Legend Double Dagger 4.9 2.0 82 22 21 16.1 100.21     Rain
04:00 Legend Double Dagger 4.2 3.0 92 21 13 16.1 100.10     Rain
05:00 Legend Double Dagger 4.2 3.0 92 21 13 16.1 100.01     Rain
06:00 Legend Double Dagger 4.4 3.5 94 26 13 14.5 99.98     Rain
07:00 Legend Double Dagger 4.7 3.8 94 32 30 16.1 99.98     LegendNANA
08:00 Legend Double Dagger 4.6 3.6 93 35 32 16.1 100.03     Rain
09:00 Legend Double Dagger 2.8 1.9 94 1 52 4.8 100.18     Rain,Fog
10:00 Legend Double Dagger 1.4 0.1 91 36 43 12.9 100.37     Rain
11:00 Legend Double Dagger 0.3 -1.4 88 34 52 4.8 100.48     Rain,Fog
12:00 Legend Double Dagger -0.1 -3.1 80 34 41 16.1 100.62   -8 LegendNANA
13:00 Legend Double Dagger -0.1 -4.0 75 33 41 16.1 100.69   -8 LegendNANA
14:00 Legend Double Dagger -0.8 -2.5 88 33 37 3.6 100.76   -8 Snow
15:00 Legend Double Dagger 0.2 -3.7 75 32 41 16.1 100.76     LegendNANA
16:00 Legend Double Dagger -0.3 -4.3 75 34 43 16.1 100.81   -8 LegendNANA
17:00 Legend Double Dagger 0.2 -4.5 71 33 39 16.1 100.83     LegendNANA
18:00 Legend Double Dagger -0.1 -3.2 80 31 41 4.8 100.82   -8 Freezing Rain,Snow
19:00 Legend Double Dagger -0.1 -2.8 82 31 32 16.1 100.83   -7 Rain
20:00 Legend Double Dagger 0.3 -4.2 72 31 43 16.1 100.81     LegendNANA
21:00 Legend Double Dagger 0.3 -4.2 72 31 34 16.1 100.78     Rain
22:00 Legend Double Dagger 0.5 -3.8 73 29 30 16.1 100.73     LegendNANA
23:00 Legend Double Dagger 0.7 -4.1 70 31 45 16.1 100.68     LegendNANA

Notes on Data Quality.

Legend

  • E = Estimated
  • M = Missing
  • NA = Not Available
  • ‡ = Partner data that is not subject to review by the National Climate Archives
Date modified: